Wind_Speed
13 13 12 13 14 15 16 16 16 15 15 15 14 14 13 13 12 12 11 11 11 11 11 11 11 11 11 10 10 9 8 7 6 5 6 5 4 3 3 3 2 2 3 4 4 4 4 5 5
12 13 13 14 16 16 17 16 16 16 16 15 13 13 13 13 12 12 11 11 11 11 11 11 11 11 11 10 9 9 9 8 7 6 5 5 4 4 3 2 2 2 3 3 4 4 5 5 5
13 12 12 13 15 16 17 16 15 16 15 14 13 12 12 12 11 11 11 12 12 11 11 11 11 10 10 10 9 8 8 8 7 7 6 5 4 3 3 2 2 2 2 2 3 4 4 4 5
13 12 12 13 15 16 16 15 16 16 14 13 13 12 12 12 12 11 12 12 12 11 11 10 10 10 9 9 9 8 8 8 8 7 6 5 4 3 2 2 1 1 1 1 3 4 5 5 4
12 12 12 14 14 14 15 15 15 14 13 13 13 12 12 12 13 12 11 11 11 11 11 10 9 9 9 9 9 8 8 8 7 7 6 4 3 3 2 2 0 1 1 1 3 4 5 5 5
10 11 12 14 14 14 15 14 14 12 12 13 13 13 12 13 13 13 12 12 11 10 10 10 9 9 9 8 8 8 8 7 7 6 6 5 4 3 3 2 1 0 1 2 3 4 6 5 5
10 10 13 13 12 12 13 14 13 13 13 13 13 13 12 12 13 13 13 13 12 11 10 10 9 8 8 8 8 8 8 8 7 7 6 6 5 3 3 2 1 1 0 1 2 3 5 5 6
9 11 13 13 12 12 13 13 12 13 13 13 13 12 12 12 13 13 13 13 13 11 10 10 9 9 8 8 8 8 8 7 7 7 7 6 5 4 4 3 2 1 1 1 1 2 4 5 5
9 11 12 11 12 12 13 13 12 13 14 13 13 12 11 11 13 13 13 13 13 12 11 11 9 9 9 8 8 8 7 7 7 6 7 7 7 6 4 3 3 2 2 1 1 1 2 3 5
9 11 12 11 11 12 13 13 14 13 13 12 12 12 11 11 12 12 12 12 12 11 11 11 10 9 9 9 9 8 8 8 8 8 7 8 7 7 6 4 3 3 3 2 2 3 3 3 4
8 9 11 10 10 11 12 12 13 13 12 12 12 12 11 11 11 12 12 12 11 11 11 11 10 9 9 9 9 9 9 9 8 8 8 8 8 7 5 5 4 4 4 3 3 4 4 4 4
7 7 9 9 9 10 11 11 11 11 12 13 14 13 11 11 11 11 11 12 12 11 11 11 10 9 9 10 10 9 10 10 9 8 7 8 8 7 6 5 5 5 4 3 4 4 4 4 4
4 6 6 7 8 9 9 10 10 11 12 13 13 12 12 11 10 10 11 11 11 11 11 11 11 10 9 9 9 9 10 10 10 9 8 8 8 8 7 5 5 5 4 4 4 4 4 4 5
3 4 4 5 6 8 8 8 9 11 12 13 13 12 11 11 11 10 10 11 11 11 10 10 10 10 10 9 9 9 10 10 9 9 9 8 8 8 8 6 5 6 5 5 5 5 5 5 6
3 3 4 4 4 5 6 7 7 9 10 11 11 11 11 11 11 11 10 10 11 11 10 10 10 10 10 10 9 9 9 9 9 9 9 8 8 8 8 7 7 6 6 6 5 6 6 7 7
2 2 3 3 4 4 5 6 8 8 8 9 9 10 10 10 11 11 10 9 9 10 11 10 10 9 10 10 9 9 9 9 9 9 9 9 9 9 8 8 7 7 6 6 6 6 7 7 7
3 0 1 2 3 4 5 7 7 7 8 8 8 8 9 9 9 10 10 9 9 9 9 10 10 10 10 10 10 10 10 10 10 10 10 10 9 9 9 9 8 7 7 6 6 7 7 8 8
4 3 2 3 3 6 7 7 6 7 7 8 8 8 9 9 8 9 9 9 9 9 9 9 9 10 11 10 11 11 11 11 11 11 11 11 11 10 9 9 9 8 7 8 8 8 8 8 8
4 5 5 5 5 7 7 7 7 6 7 7 7 8 9 9 9 9 9 9 9 9 9 9 9 10 10 11 10 11 10 11 11 11 12 12 11 10 10 10 9 8 8 9 9 9 8 8 8
7 6 5 6 7 9 9 9 7 9 8 6 7 8 8 9 9 9 9 8 10 10 8 8 9 9 10 10 10 10 11 11 11 12 13 12 11 10 10 9 9 10 10 10 10 9 9 8 8
9 9 8 9 11 11 11 10 10 10 7 7 8 9 10 10 9 8 7 8 8 9 8 8 9 9 9 9 9 10 11 11 12 12 12 12 11 11 11 9 10 10 11 10 11 9 9 9 9
12 12 11 11 13 14 13 12 10 10 9 9 8 9 10 10 10 9 8 8 8 8 8 8 8 9 9 9 9 10 11 12 12 12 13 12 12 12 11 11 11 11 11 11 10 10 10 10 10
13 14 14 13 14 14 14 15 12 11 10 10 10 10 10 10 11 10 9 9 10 9 8 8 8 9 9 9 10 11 11 12 12 13 13 13 13 13 12 12 12 12 12 12 12 11 12 11 11
14 14 15 15 16 17 14 14 12 11 11 11 10 11 11 10 10 10 11 11 11 10 9 9 9 9 10 10 11 12 13 13 14 14 14 14 14 14 14 14 14 14 14 13 14 14 14 13 12
14 14 15 16 17 17 15 15 14 12 11 12 11 12 13 12 12 13 12 12 12 12 12 12 11 10 11 12 12 13 13 14 15 15 16 15 15 15 15 16 16 16 15 15 16 16 15 15 14
16 15 16 17 16 16 16 16 14 13 12 12 13 13 14 13 13 14 14 13 13 13 12 13 13 13 13 14 14 15 15 16 16 17 17 17 17 17 17 18 18 17 17 17 17 16 16 16 16
17 17 16 17 17 17 15 14 14 14 13 14 15 14 15 15 14 14 14 14 13 12 13 13 14 14 14 15 16 16 17 17 18 18 19 19 19 19 19 19 18 18 17 18 17 17 17 18 18
18 17 17 18 17 18 17 16 15 14 14 14 14 15 15 15 17 16 14 13 13 13 13 14 15 15 15 17 18 18 19 20 20 20 20 20 20 20 20 20 19 19 19 19 18 18 19 19 19
19 19 19 19 19 20 20 18 16 15 15 14 13 14 14 14 15 17 16 13 12 13 14 15 16 17 18 19 20 21 22 22 22 22 22 21 21 22 21 21 21 20 20 19 20 20 20 21 21
20 18 19 21 21 21 22 21 18 16 15 14 14 14 14 16 16 16 16 14 13 14 15 16 18 19 20 21 22 22 23 24 24 24 24 23 22 23 22 22 22 21 20 20 20 20 21 22 23
Wind_Direction
78 75 68 66 65 65 61 56 57 55 53 55 55 55 56 58 59 60 60 62 66 68 68 70 69 68 67 63 62 62 64 65 70 81 88 83 87 96 101 111 119 152 170 176 180 183 176 174 178
76 72 66 62 62 60 60 55 54 54 53 53 54 56 56 59 59 59 59 60 64 68 68 68 68 67 66 64 61 58 59 63 67 71 82 84 84 95 100 98 93 130 161 183 188 190 185 183 186
73 70 67 64 62 58 56 54 52 52 51 50 51 55 57 61 62 62 62 59 62 66 65 66 65 63 61 62 60 59 60 61 61 61 64 71 75 88 93 92 89 113 148 182 189 186 185 187 191
71 72 70 67 61 57 56 51 49 47 46 46 49 54 58 60 62 63 62 58 60 63 63 64 65 62 60 62 61 59 61 60 58 56 56 57 62 83 87 79 96 102 148 166 177 182 190 193 186
74 67 68 67 56 53 50 51 48 43 41 44 51 49 56 58 60 61 61 58 58 60 63 62 63 63 62 61 60 59 59 57 55 54 50 48 42 39 37 35 158 193 181 198 195 195 194 189 194
70 61 67 60 53 50 50 48 46 42 42 46 52 51 55 57 58 55 56 59 56 58 61 61 60 61 60 59 57 54 53 49 46 48 45 43 36 26 9 358 2 320 264 231 221 209 205 206 209
66 66 64 56 50 47 49 46 46 42 39 43 47 49 50 53 57 55 52 55 56 55 56 59 58 58 56 53 51 45 43 40 38 36 35 35 28 24 13 359 358 326 317 229 216 218 221 220 219
72 64 65 53 45 45 50 46 45 45 40 42 45 45 45 49 57 56 55 54 53 54 58 58 59 60 57 51 45 39 36 34 32 32 31 28 23 22 16 4 350 323 310 260 239 233 228 223 224
80 64 58 48 44 50 53 47 45 44 41 42 45 46 48 53 54 55 54 53 53 51 55 54 59 60 56 52 44 36 31 27 24 23 25 26 26 25 14 355 346 326 311 300 289 258 245 228 224
87 71 59 50 46 50 50 45 44 43 43 41 43 47 52 54 54 53 52 50 50 51 55 52 53 52 48 47 40 32 30 27 24 24 22 25 20 20 15 5 349 328 320 311 296 295 283 252 236
87 79 63 54 50 49 45 41 41 40 41 43 43 45 49 49 49 50 51 47 46 52 55 53 52 48 43 41 37 34 31 26 23 25 27 22 18 16 13 8 358 342 327 307 293 297 288 275 259
94 88 75 63 59 56 48 42 41 38 43 46 45 42 45 47 45 47 49 45 43 47 52 53 48 42 41 40 36 31 28 24 21 23 22 19 16 14 14 10 1 343 329 320 311 300 293 285 268
100 99 85 68 67 55 44 40 39 39 37 38 38 39 41 39 38 41 45 45 46 49 50 48 44 39 37 34 30 26 21 19 18 19 20 17 14 11 5 1 357 355 338 321 322 319 306 293 281
123 83 64 63 69 58 45 42 40 36 32 33 34 35 35 34 36 38 40 40 41 43 42 40 38 35 31 27 25 21 17 16 14 11 10 8 8 9 3 357 352 350 345 327 315 312 303 296 286
130 80 40 34 46 46 41 39 38 27 27 32 30 30 31 28 29 34 36 34 34 35 35 35 34 29 26 23 18 15 14 11 9 6 6 2 359 1 0 357 353 347 334 330 323 318 311 300 294
147 98 59 37 16 357 9 18 24 24 20 24 24 20 20 24 24 25 26 26 28 28 29 29 28 23 22 20 15 11 8 6 6 4 1 358 357 356 358 355 355 351 340 334 328 320 315 309 299
182 185 40 4 346 334 333 343 360 7 15 15 16 13 9 13 12 12 13 20 20 18 16 19 21 19 14 12 10 6 5 2 4 5 2 359 355 355 358 356 352 349 346 341 335 325 317 308 304
189 238 268 280 299 308 307 321 335 350 356 358 3 3 358 2 1 2 4 7 9 9 5 6 10 14 12 9 10 9 8 7 6 3 3 1 360 358 355 354 351 345 338 339 337 329 321 311 304
219 240 258 265 273 287 296 302 315 324 331 339 352 352 348 350 350 351 351 352 355 356 358 1 358 0 3 3 5 4 3 3 4 3 1 0 356 355 351 351 351 350 345 339 335 332 321 315 310
224 238 246 256 257 273 285 293 295 305 314 324 338 343 338 336 338 342 343 343 348 346 349 351 350 349 353 355 356 358 356 356 357 357 355 353 351 354 353 348 350 346 342 339 333 330 325 320 314
229 237 237 247 251 259 275 281 287 295 300 314 327 336 338 331 329 327 332 337 340 344 341 341 346 346 347 347 347 349 349 348 347 348 350 346 344 347 351 346 341 339 337 332 330 326 321 318 309
237 241 247 249 248 255 264 280 284 288 289 305 314 319 324 321 324 322 322 330 335 330 325 327 334 339 341 341 339 339 338 340 342 342 343 340 339 337 338 340 337 334 332 330 328 321 319 315 311
241 244 247 248 250 257 263 268 272 281 287 292 303 306 316 316 320 319 316 320 322 323 319 318 319 324 327 328 328 330 329 328 329 330 333 333 332 329 327 327 327 325 324 326 321 316 314 312 310
242 247 247 251 252 257 261 269 267 278 288 293 293 297 301 308 309 310 309 311 313 309 308 309 308 314 315 317 320 322 322 323 323 323 325 325 326 324 321 319 319 317 316 317 316 313 310 306 304
241 249 250 250 251 256 259 268 273 276 289 290 290 295 297 300 301 304 302 305 309 304 304 299 299 302 306 311 316 317 318 321 321 321 321 321 320 318 315 313 312 311 310 311 311 310 307 303 300
244 251 258 258 259 259 261 268 275 279 292 291 289 291 294 296 298 300 300 301 304 301 298 299 295 296 299 306 310 313 316 318 318 318 317 317 316 314 312 311 310 308 307 307 307 306 306 303 301
244 249 257 261 265 263 264 270 273 277 283 288 287 292 295 289 292 299 297 297 297 294 296 297 298 298 302 303 305 307 309 311 313 313 314 313 313 310 308 308 307 307 306 305 303 301 300 299 298
245 249 251 254 259 260 263 268 273 276 285 289 289 297 295 293 298 299 297 291 287 286 290 294 297 299 300 302 302 306 308 310 310 309 309 310 309 307 305 305 306 305 303 301 301 299 298 295 294
243 248 251 255 257 262 267 272 274 275 278 286 287 294 296 299 303 300 298 292 287 284 286 291 296 298 300 303 306 307 308 308 307 307 307 308 307 304 302 302 303 302 300 299 297 294 293 294 292
240 250 253 254 256 259 265 275 275 273 278 283 286 289 290 294 297 296 297 294 290 288 290 296 299 297 299 302 304 304 305 307 307 306 305 305 304 304 300 300 300 300 298 297 295 295 293 293 293
Height
5910 5909 5909 5909 5909 5908 5906 5905 5904 5904 5904 5903 5902 5901 5901 5900 5900 5900 5898 5896 5895 5894 5893 5893 5893 5892 5892 5892 5892 5891 5891 5891 5891 5891 5891 5890 5890 5890 5890 5890 5891 5890 5890 5891 5891 5891 5892 5892 5893
5912 5911 5911 5911 5910 5909 5908 5907 5906 5906 5905 5904 5904 5903 5902 5901 5900 5899 5898 5897 5896 5895 5895 5895 5894 5894 5894 5894 5893 5893 5892 5892 5892 5892 5891 5891 5891 5891 5891 5891 5891 5891 5891 5891 5891 5892 5892 5892 5893
5914 5913 5913 5913 5911 5910 5910 5909 5908 5908 5907 5906 5906 5905 5904 5903 5902 5901 5900 5899 5898 5897 5897 5896 5896 5896 5895 5895 5895 5894 5894 5893 5893 5892 5892 5892 5892 5892 5892 5892 5891 5891 5891 5891 5892 5892 5892 5892 5893
5916 5916 5915 5914 5912 5912 5911 5910 5910 5909 5908 5907 5907 5906 5905 5905 5903 5902 5901 5900 5899 5899 5898 5898 5898 5897 5897 5896 5896 5895 5895 5894 5894 5894 5893 5893 5893 5892 5892 5892 5892 5892 5891 5891 5891 5892 5892 5892 5892
5918 5917 5916 5914 5914 5913 5912 5912 5912 5912 5911 5909 5908 5908 5907 5906 5905 5904 5903 5902 5901 5901 5900 5899 5899 5899 5898 5898 5897 5896 5896 5895 5895 5894 5894 5894 5893 5893 5892 5892 5892 5891 5891 5891 5891 5891 5892 5892 5892
5919 5918 5917 5916 5916 5915 5914 5914 5914 5914 5912 5911 5910 5909 5908 5907 5906 5905 5904 5903 5903 5902 5901 5901 5900 5900 5900 5899 5898 5898 5897 5896 5896 5895 5895 5894 5893 5893 5892 5892 5892 5891 5891 5890 5891 5891 5891 5891 5891
5920 5919 5918 5918 5918 5917 5917 5916 5915 5915 5913 5912 5911 5911 5909 5909 5908 5906 5905 5904 5904 5903 5902 5902 5901 5901 5901 5900 5900 5899 5898 5897 5897 5896 5895 5894 5894 5893 5892 5892 5892 5891 5891 5891 5890 5890 5891 5891 5891
5921 5921 5920 5919 5919 5919 5919 5918 5917 5916 5915 5914 5913 5912 5911 5910 5909 5908 5907 5906 5905 5904 5903 5903 5902 5902 5902 5901 5901 5900 5899 5898 5897 5896 5895 5895 5894 5893 5892 5892 5891 5891 5891 5891 5890 5890 5890 5890 5890
5922 5923 5921 5920 5921 5920 5920 5920 5919 5918 5916 5915 5914 5914 5913 5911 5910 5909 5908 5907 5906 5905 5904 5904 5903 5903 5902 5902 5901 5901 5900 5898 5897 5896 5896 5895 5894 5893 5892 5892 5891 5891 5890 5890 5890 5890 5889 5889 5889
5923 5923 5922 5922 5922 5921 5921 5921 5920 5919 5918 5917 5915 5914 5913 5912 5912 5911 5910 5909 5908 5906 5905 5905 5904 5904 5903 5902 5902 5901 5900 5899 5897 5896 5896 5895 5894 5893 5892 5891 5891 5890 5890 5889 5889 5889 5889 5889 5888
5924 5924 5924 5923 5923 5923 5922 5922 5921 5921 5920 5919 5917 5916 5914 5914 5913 5912 5911 5910 5909 5908 5907 5906 5905 5905 5904 5903 5902 5901 5900 5899 5898 5897 5896 5895 5894 5893 5892 5891 5890 5889 5889 5888 5888 5888 5888 5888 5887
5925 5925 5925 5925 5925 5924 5924 5923 5923 5923 5922 5921 5919 5917 5916 5915 5914 5913 5913 5912 5910 5909 5908 5907 5907 5906 5905 5904 5903 5902 5901 5900 5898 5897 5896 5895 5894 5893 5892 5891 5890 5889 5888 5887 5887 5887 5887 5886 5886
5925 5926 5926 5926 5925 5926 5926 5925 5925 5924 5923 5921 5920 5919 5917 5916 5915 5914 5914 5913 5912 5910 5909 5908 5907 5906 5906 5905 5904 5903 5901 5900 5898 5897 5896 5895 5894 5893 5892 5891 5890 5888 5888 5887 5886 5886 5886 5885 5885
5926 5926 5926 5926 5926 5926 5927 5927 5926 5925 5924 5922 5921 5920 5918 5917 5916 5915 5915 5914 5913 5912 5911 5909 5908 5907 5906 5905 5904 5903 5902 5900 5899 5898 5896 5895 5894 5893 5891 5890 5889 5888 5887 5887 5886 5885 5885 5884 5883
5926 5926 5927 5927 5926 5927 5928 5928 5927 5926 5925 5924 5922 5921 5919 5918 5917 5916 5915 5914 5913 5913 5912 5910 5909 5908 5907 5906 5905 5903 5902 5901 5899 5898 5896 5895 5894 5892 5891 5889 5888 5887 5886 5886 5885 5884 5883 5882 5881
5926 5927 5927 5927 5927 5927 5929 5929 5928 5926 5925 5924 5923 5922 5920 5918 5918 5918 5916 5915 5914 5913 5912 5911 5910 5908 5907 5906 5905 5904 5902 5901 5899 5897 5896 5894 5893 5891 5890 5889 5888 5886 5885 5884 5883 5882 5881 5880 5880
5926 5926 5927 5928 5927 5927 5927 5928 5927 5926 5925 5925 5924 5922 5921 5920 5919 5918 5917 5916 5915 5914 5913 5911 5910 5909 5907 5906 5905 5903 5902 5900 5898 5897 5895 5894 5892 5891 5889 5888 5886 5885 5884 5883 5882 5880 5880 5879 5878
5925 5925 5925 5926 5927 5927 5927 5927 5926 5925 5925 5924 5923 5923 5922 5920 5919 5918 5917 5916 5915 5914 5912 5911 5910 5908 5907 5906 5905 5903 5901 5899 5898 5896 5894 5893 5891 5890 5888 5887 5886 5884 5883 5882 5880 5879 5878 5877 5876
5923 5924 5924 5924 5925 5925 5925 5925 5925 5925 5924 5923 5922 5922 5921 5920 5919 5917 5916 5915 5914 5913 5912 5911 5909 5908 5907 5905 5904 5903 5901 5899 5897 5896 5894 5892 5890 5889 5887 5886 5885 5883 5882 5880 5879 5878 5877 5876 5874
5922 5922 5923 5923 5924 5924 5923 5924 5923 5922 5922 5922 5921 5921 5920 5919 5918 5917 5916 5914 5912 5911 5911 5910 5909 5907 5906 5905 5903 5902 5900 5898 5897 5895 5893 5891 5890 5888 5886 5885 5884 5882 5880 5879 5878 5876 5875 5874 5873
5919 5920 5922 5922 5921 5921 5922 5922 5921 5920 5920 5920 5919 5919 5919 5918 5917 5916 5914 5913 5912 5910 5910 5909 5908 5906 5905 5903 5902 5901 5899 5898 5896 5894 5892 5890 5888 5887 5885 5884 5883 5881 5879 5878 5876 5874 5873 5872 5871
5917 5918 5919 5919 5919 5918 5919 5918 5919 5917 5918 5918 5917 5917 5916 5915 5915 5914 5912 5911 5911 5910 5909 5908 5907 5905 5904 5902 5901 5899 5898 5896 5895 5893 5891 5889 5887 5886 5884 5882 5881 5879 5878 5876 5874 5872 5871 5869 5868
5914 5915 5915 5916 5916 5916 5916 5916 5917 5916 5916 5916 5915 5914 5913 5913 5913 5911 5910 5910 5909 5908 5907 5906 5905 5903 5902 5901 5899 5898 5896 5895 5893 5891 5889 5887 5885 5884 5882 5880 5879 5877 5875 5873 5872 5870 5868 5867 5865
5911 5912 5912 5912 5913 5913 5914 5913 5913 5913 5913 5913 5912 5911 5911 5910 5910 5909 5909 5908 5908 5906 5905 5904 5902 5901 5899 5898 5897 5895 5894 5892 5891 5889 5887 5885 5883 5881 5879 5878 5876 5874 5872 5870 5869 5867 5865 5864 5862
5908 5908 5909 5909 5908 5909 5910 5909 5911 5910 5910 5909 5908 5908 5907 5907 5906 5906 5906 5906 5905 5903 5902 5901 5900 5898 5897 5895 5894 5893 5891 5889 5888 5886 5884 5882 5880 5878 5876 5874 5873 5871 5869 5867 5865 5863 5861 5860 5858
5904 5904 5905 5905 5905 5906 5906 5905 5907 5907 5906 5905 5905 5905 5904 5904 5903 5903 5903 5902 5901 5900 5899 5898 5897 5895 5893 5892 5891 5889 5888 5886 5885 5883 5880 5878 5877 5874 5872 5870 5868 5866 5864 5863 5861 5859 5857 5855 5854
5899 5900 5901 5901 5901 5901 5901 5902 5903 5903 5902 5901 5901 5901 5901 5900 5900 5900 5899 5898 5897 5897 5895 5894 5893 5891 5889 5889 5887 5885 5884 5882 5881 5879 5876 5874 5872 5870 5868 5866 5863 5861 5860 5858 5856 5854 5852 5850 5849
5896 5896 5897 5897 5896 5896 5897 5898 5899 5899 5898 5898 5898 5898 5896 5896 5896 5895 5895 5894 5893 5892 5891 5890 5889 5887 5886 5885 5883 5880 5879 5878 5876 5874 5872 5869 5867 5865 5863 5860 5858 5856 5854 5852 5850 5848 5846 5844 5843
5891 5892 5892 5893 5893 5893 5893 5896 5895 5895 5895 5894 5894 5894 5893 5892 5891 5891 5890 5889 5887 5887 5886 5885 5884 5883 5882 5880 5878 5876 5875 5872 5871 5869 5866 5864 5862 5859 5857 5855 5852 5850 5848 5846 5844 5843 5841 5838 5836
5886 5887 5888 5889 5889 5888 5888 5892 5890 5890 5890 5890 5890 5890 5889 5888 5888 5887 5886 5884 5883 5883 5882 5881 5880 5878 5877 5875 5873 5871 5869 5867 5865 5863 5860 5858 5856 5853 5851 5849 5847 5844 5842 5840 5838 5836 5834 5832 5829